Regional Weather Roundup
Issued by NWS Sioux Falls, SD

Home | Current Version | Previous Version | Graphics & Text | Print | Product List | Glossary On
Versions: 1 2 3 4 5 6 7 8 9 10 11 12 13 14 15 16 17 18 19 20 21 22 23 24 25 26 27 28 29 30 31 32 33 34 35 36 37 38 39 40 41 42 43 44 45 46 47 48 49 50
000
ASUS43 KFSD 261510
RWRFSD

WEATHER ROUNDUP FOR SE SOUTH DAKOTA/SW MINNESOTA/NW IOWA
NATIONAL WEATHER SERVICE SIOUX FALLS SD
1000 AM CDT MON SEP 26 2016

NOTE: "FAIR" INDICATES FEW OR NO CLOUDS BELOW 12,000 FEET WITH NO
SIGNIFICANT WEATHER AND OR OBSTRUCTIONS TO VISIBILITY.


SDZ038>040-050-052>070-261600-
SOUTHEAST SOUTH DAKOTA

CITY           SKY/WX    TMP DP  RH WIND       PRES   REMARKS
BROOKINGS      SUNNY     55  38  52 NW15      30.13S
CHAMBERLAIN    MOSUNNY   56  39  52 W7        30.22S
HURON          SUNNY     58  40  51 W12       30.16F
MADISON        FAIR      52  37  58 W10G17    30.15F
MITCHELL       SUNNY     57  40  52 W10       30.19F
SIOUX FALLS    MOSUNNY   56  40  55 W13G21    30.16F
WINNER         FAIR      63  39  41 W6        30.23F
YANKTON        SUNNY     57  39  51 W15       30.19F
$$

MNZ071-072-080-081-089-090-097-098-261600-
SOUTHWEST MINNESOTA

CITY           SKY/WX    TMP DP  RH WIND       PRES   REMARKS
FAIRMONT       SUNNY     58  35  42 NW20G25   30.08S
JACKSON        SUNNY     57  32  38 W15G23    30.10S
LUVERNE        SUNNY     52  36  54 W12       30.15F
MARSHALL       SUNNY     58  37  45 W23G31    30.07F
MONTEVIDEO     SUNNY     59  37  44 NW14G21   30.06S
PIPESTONE      SUNNY     55  36  47 NW15      30.13S
REDWOOD FALLS  SUNNY     58  36  43 W23G30    30.03F
TRACY          SUNNY     58  37  45 W10G21    30.09S
WINDOM         SUNNY     57  36  44 W16G22    30.08F
WORTHINGTON    SUNNY     53  38  56 W14G22    30.13S
$$

IAZ001>003-012>014-020>022-031-032-NEZ013-014-SDZ071-261600-
NORTHWEST IOWA

CITY           SKY/WX    TMP DP  RH WIND       PRES   REMARKS
CHEROKEE       SUNNY     56  40  55 W13       30.18S
DENISON        SUNNY     57  41  54 W12       30.19S
ESTHERVILLE    SUNNY     56  37  49 NW16G23   30.11R
LE MARS        SUNNY     57  41  54 W8        30.20S
ORANGE CITY    SUNNY     55  43  62 W13       30.18S
SHELDON        SUNNY     57  39  51 W12       30.15S
SIOUX CITY     SUNNY     58  42  55 NW7       30.21S
SPENCER        SUNNY     57  38  48 W17       30.14S
STORM LAKE     SUNNY     55  39  54 W14G20    30.17S
$$

ABBREVIATIONS USED IN REMARKS
   TC - TEMPERATURE IN CELSIUS
  WCI - WIND CHILL INDEX
   HX - HEAT INDEX
  VSB - VISIBILITY




USA.gov is the U.S. government's official web portal to all federal, state and local government web resources and services.